This demonstration page uses our WeatherBlox Daily Observations layout. Learn more.

Left ArrowRight Arrow

Hourly Observations for November 19, 2019

Temp ( °F °C ) Dew Point ( °F °C ) Humidity (%) Winds ( mph kmh ) Pressure ( in mb ) Visibility ( mi km ) Precip ( " mm )
12:53 am 00:53 Clear 46 7.8 37 2.8 71 71 WNW 3 6 29.81 1009 10 16 0.00 0.00
1:53 am 01:53 Partly Cloudy 46 7.8 37 2.8 71 71 WNW 6 9 29.81 1010 10 16 0.00 0.00
2:53 am 02:53 Clear 46 7.8 37 2.8 71 71 W 5 7 29.82 1010 10 16 0.00 0.00
3:53 am 03:53 Mostly Clear 45 7.2 37 2.8 74 74 W 3 6 29.84 1010 10 16 0.00 0.00
4:53 am 04:53 Cloudy 45 7.2 38 3.3 77 77 W 5 7 29.84 1011 10 16 0.00 0.00
5:53 am 05:53 Mostly Cloudy 45 7.2 37 2.8 74 74 W 3 6 29.85 1011 10 16 0.00 0.00
6:53 am 06:53 Clear 44 6.7 37 2.8 76 76 VRB 5 7 29.87 1011 10 16 0.00 0.00
7:53 am 07:53 Cloudy 44 6.7 37 2.8 76 76 NW 3 6 29.88 1012 10 16 0.00 0.00
8:53 am 08:53 Cloudy 46 7.8 37 2.8 71 71 WNW 6 9 29.91 1013 10 16 0.00 0.00
9:53 am 09:53 Partly Cloudy 49 9.4 36 2.2 61 61 NW 7 11 29.91 1013 10 16 0.00 0.00
10:53 am 10:53 Mostly Cloudy 52 11.1 36 2.2 55 55 Calm 29.91 1013 10 16 0.00 0.00
11:53 am 11:53 Mostly Sunny 55 12.8 37 2.8 51 51 Calm 29.89 1012 10 16 0.00 0.00
12:53 pm 12:53 Sunny 58 14.4 36 2.2 44 44 Calm 29.87 1012 10 16 0.00 0.00
1:53 pm 13:53 Sunny 61 16.1 36 2.2 39 39 W 10 17 29.84 1011 10 16 0.00 0.00
2:53 pm 14:53 Sunny 62 16.7 37 2.8 40 40 W 13 20 29.84 1011 10 16 0.00 0.00
3:53 pm 15:53 Sunny 63 17.2 37 2.8 38 38 WSW 8 13 29.85 1011 10 16 0.00 0.00
4:53 pm 16:53 Sunny 62 16.7 37 2.8 40 40 WSW 10 17 29.87 1012 10 16 0.00 0.00
5:53 pm 17:53 Clear 58 14.4 38 3.3 48 48 Calm 29.89 1012 10 16 0.00 0.00
6:53 pm 18:53 Clear 53 11.7 39 3.9 59 59 Calm 29.91 1013 10 16 0.00 0.00
7:53 pm 19:53 Mostly Clear 50 10 40 4.4 68 68 Calm 29.94 1014 10 16 0.00 0.00
8:53 pm 20:53 Clear 47 8.3 41 5 80 80 Calm 29.96 1015 10 16 0.00 0.00
9:53 pm 21:53 Clear 45 7.2 40 4.4 83 83 Calm 29.96 1015 10 16 0.00 0.00
10:53 pm 22:53 Clear 46 7.8 41 5 83 83 Calm 29.96 1015 10 16 0.00 0.00
11:53 pm 23:53 Clear 43 6.1 39 3.9 86 86 WSW 3 6 29.98 1015 10 16 0.00 0.00

Powered by AerisWeather